[[{"header":{"parameterUnit":"m.s-1","parameterCategory":1,"la1":30.2991,"la2":30.254,"lo1":-89.0895,"lo2":-89.0444,"dy":0.0017,"dx":0.0017,"nx":28,"ny":28,"refTime":"2024-07-30T09:00:00:Z","depth":0,"parameterNumber":2,"parameterNumberName":"U-component_of_WINDS"},"data":[0,0,0,0,0,0,0,0,0,0,0,0,0,0,0,0,0,0,0,0,0,0,0,0,0,0,0,0,0,0,0,0,0,0,0,0,0,0,0,0,0,0,0,0,0,0,0,0,0,0,0,0,0,0,0,0,0,0,1.4276,1.4277,0,1.4403,1.4404,1.4406,1.4433,1.4432,1.4431,1.443,1.4566,1.457,1.4575,0,0,0,0,0,0,0,0,0,0,0,0,0,1.4061,1.4065,1.4276,1.4277,1.4279,1.4403,1.4404,1.4406,1.4433,1.4432,1.4431,1.4429,1.4564,1.457,1.4575,0,0,0,0,0,0,0,0,0,0,0,0,0,1.4168,1.4066,1.4275,1.4307,1.4311,1.4402,1.4404,1.4407,1.4433,1.4432,1.443,1.4429,1.4562,1.4569,1.4576,1.4646,0,0,1.4596,1.4599,0,0,0,0,0,0,0,0,1.4162,1.4176,1.4301,1.4305,1.431,1.44,1.4379,1.4487,1.4433,1.4387,1.443,1.4428,1.4512,1.4523,1.455,1.4653,1.4658,1.4597,1.4601,1.4604,1.4606,0,0,0,0,0,0,0,1.4155,1.4171,1.4326,1.4303,1.4308,1.4317,1.433,1.4399,1.4456,1.4391,1.4393,1.4408,1.4514,1.4544,1.4554,1.466,1.4597,1.4603,1.4607,1.461,1.4827,1.4829,0,0,0,0,0,0,1.4141,1.4164,1.4322,1.433,1.4231,1.4321,1.4337,1.4373,1.4456,1.4467,1.4409,1.4408,1.4533,1.4546,1.4558,1.4646,1.4604,1.461,1.4614,1.4825,1.4827,1.4829,0,0,0,0,0,0,1.4136,1.4155,1.4317,1.4248,1.4269,1.4327,1.4367,1.4376,1.4405,1.4469,1.448,1.4428,1.4532,1.4549,1.4624,1.4651,1.4613,1.4619,1.4823,1.4826,1.4828,1.4822,0,0,0,0,0,0,1.413,1.4153,1.4179,1.4248,1.4273,1.4379,1.4369,1.438,1.4416,1.4417,1.449,1.45,1.4532,1.4613,1.463,1.466,1.4625,1.4821,1.4824,1.4827,1.482,1.4824,1.4828,0,0,0,0,0,1.4122,1.4173,1.418,1.4199,1.4306,1.438,1.4394,1.4428,1.4418,1.4446,1.4487,1.4498,1.4645,1.4621,1.464,1.4672,1.4819,1.4823,1.4827,1.4818,1.4823,1.4828,0,0,0,0,0,0,1.4108,1.4183,1.4191,1.4266,1.4316,1.4384,1.442,1.4433,1.4488,1.4487,1.4529,1.4545,1.4617,1.4652,1.4624,1.4745,1.4732,1.474,1.4719,1.4724,1.4728,1.4718,1.463,0,0,0,0,0,1.4113,1.4165,1.4229,1.4289,1.4313,1.4362,1.4396,1.4418,1.4472,1.4494,1.454,1.4594,1.4653,1.469,1.4748,1.4825,1.4842,1.4857,1.4861,1.4863,1.487,1.4913,1.4921,1.4842,1.4842,1.4842,0,0,1.4126,1.4173,1.4204,1.4287,1.4329,1.4383,1.438,1.4438,1.4479,1.4503,1.4576,1.4612,1.4675,1.4751,1.4787,1.4783,1.4895,1.4868,1.487,1.4875,1.4918,1.4926,1.4932,1.4844,1.4844,1.4844,0,0,1.4175,1.4216,1.427,1.4311,1.4373,1.4405,1.4418,1.4485,1.4509,1.4582,1.4601,1.4652,1.4752,1.4795,1.4831,1.4896,1.4909,1.4914,1.4934,1.4976,1.4982,1.4988,1.5011,1.5019,1.492,1.492,1.492,0,1.4183,1.4264,1.4297,1.4354,1.439,1.4413,1.4469,1.4508,1.4586,1.4611,1.4605,1.473,1.4774,1.4861,1.4876,1.4904,1.4921,1.4906,1.4978,1.4984,1.499,1.5013,1.5022,1.4921,1.4921,1.4921,1.4921,0,1.427,1.4326,1.4363,1.4435,1.4476,1.4533,1.4576,1.4613,1.4632,1.4665,1.4739,1.4793,1.4861,1.4883,1.4903,1.4973,1.4968,1.4969,1.4958,1.4997,1.5019,1.5028,1.4921,1.4921,1.4921,1.4921,0,0,1.4315,1.4404,1.4417,1.4451,1.452,1.4565,1.4623,1.4688,1.4719,1.4773,1.4822,1.4906,1.4907,1.4947,1.4972,1.5008,1.5057,1.5005,1.5007,1.5013,1.5138,1.5136,1.5145,1.5065,1.5067,1.5069,1.5132,0,1.4373,1.4474,1.4506,1.4591,1.4643,1.4665,1.4716,1.4765,1.4797,1.4848,1.4885,1.4943,1.494,1.4964,1.5002,1.5043,1.5082,1.5039,1.5113,1.5115,1.5096,1.5157,1.5156,1.5213,1.5141,1.5143,1.5144,0,1.4454,1.4506,1.4596,1.4659,1.4682,1.4727,1.4788,1.4836,1.4893,1.4914,1.4958,1.4979,1.5041,1.5026,1.5112,1.5082,1.5114,1.5139,1.5142,1.5151,1.5132,1.5167,1.5232,1.5241,1.5158,1.5157,1.5156,0,1.4477,1.4571,1.4636,1.4664,1.4739,1.477,1.4803,1.4858,1.4894,1.4949,1.4974,1.5036,1.507,1.5118,1.5156,1.5141,1.5239,1.5227,1.5259,1.5258,1.5279,1.5277,1.535,1.53,1.53,1.53,1.5299,0,1.4539,1.4593,1.4648,1.4688,1.475,1.4786,1.4847,1.4881,1.493,1.4978,1.5002,1.5047,1.5094,1.5146,1.5177,1.5244,1.5259,1.5279,1.5286,1.5277,1.5274,1.5299,1.5296,1.5302,1.5301,1.5301,1.5301,0,1.4575,1.4614,1.4687,1.4751,1.4769,1.4811,1.4867,1.4908,1.4941,1.5002,1.5019,1.5072,1.5134,1.5176,1.5257,1.5277,1.535,1.5357,1.533,1.5334,1.5364,1.536,1.5455,1.5469,1.5409,1.541,1.541,0,1.4611,1.4653,1.4722,1.4755,1.4787,1.4841,1.4878,1.4916,1.4954,1.5021,1.5054,1.5118,1.517,1.5269,1.5315,1.5377,1.5386,1.5415,1.5395,1.5384,1.5386,1.5383,1.5387,1.5418,1.5418,1.5418,1.5419,0,1.4672,1.4689,1.4741,1.4799,1.4842,1.4891,1.494,1.4966,1.5013,1.5055,1.5117,1.5158,1.5239,1.5302,1.5368,1.5404,1.5419,1.5424,1.5435,1.5426,1.5408,1.5418,1.5338,1.5422,1.5422,1.5422,1.5421,1.5421,1.4709,1.4747,1.4801,1.4858,1.4898,1.4943,1.4984,1.5022,1.5075,1.5142,1.5162,1.5227,1.5283,1.5373,1.541,1.5462,1.546,1.5475,1.5479,1.5483,1.5482,1.54,1.5475,1.5475,1.5475,1.5474,1.5474,0,1.4771,1.4806,1.4858,1.4925,1.497,1.4979,1.5033,1.5071,1.5127,1.5177,1.5228,1.53,1.5361,1.5412,1.5475,1.5508,1.5516,1.5523,1.5521,1.5529,1.5481,1.5465,1.5515,1.5515,1.5515,1.5515,1.5515,1.5515,1.4808,1.4873,1.4896,1.4981,1.5017,1.508,1.511,1.5152,1.5192,1.5271,1.5321,1.5353,1.5403,1.547,1.5527,1.554,1.5563,1.5567,1.5582,1.5537,1.5532,1.5528,1.5513,1.5572,1.5572,1.5626,1.5626,1.5627]},{"header":{"parameterUnit":"m.s-1","parameterCategory":1,"la1":30.2991,"la2":30.254,"lo1":-89.0895,"lo2":-89.0444,"dy":0.0017,"dx":0.0017,"nx":28,"ny":28,"refTime":"2024-07-30T09:00:00:Z","depth":0,"parameterNumber":3,"parameterNumberName":"V-component_of_WINDS"},"data":[0,0,0,0,0,0,0,0,0,0,0,0,0,0,0,0,0,0,0,0,0,0,0,0,0,0,0,0,0,0,0,0,0,0,0,0,0,0,0,0,0,0,0,0,0,0,0,0,0,0,0,0,0,0,0,0,0,0,3.474,3.474,0,3.4793,3.4794,3.4794,3.4781,3.478,3.4779,3.4778,3.483,3.4832,3.4835,0,0,0,0,0,0,0,0,0,0,0,0,0,3.462,3.4622,3.474,3.474,3.4741,3.4793,3.4794,3.4795,3.4781,3.478,3.4779,3.4778,3.4829,3.4832,3.4835,0,0,0,0,0,0,0,0,0,0,0,0,0,3.4672,3.4623,3.474,3.4741,3.4741,3.4793,3.4794,3.4795,3.4782,3.478,3.4779,3.4777,3.4828,3.4832,3.4835,3.4888,0,0,3.4846,3.4847,0,0,0,0,0,0,0,0,3.4669,3.4677,3.474,3.4741,3.4742,3.4779,3.4771,3.4826,3.4782,3.4766,3.4778,3.4776,3.4814,3.4819,3.4832,3.489,3.4893,3.4846,3.4848,3.485,3.4851,0,0,0,0,0,0,0,3.4666,3.4674,3.4761,3.4741,3.4742,3.4737,3.4742,3.4781,3.4798,3.4768,3.4767,3.4773,3.4814,3.4829,3.4833,3.4893,3.4846,3.4849,3.4851,3.4853,3.4992,3.4993,0,0,0,0,0,0,3.4662,3.4672,3.4759,3.4762,3.4701,3.474,3.4747,3.4769,3.4798,3.4801,3.4775,3.4773,3.4823,3.4829,3.4835,3.4895,3.485,3.4853,3.4855,3.499,3.4992,3.4994,0,0,0,0,0,0,3.466,3.467,3.4757,3.4717,3.4727,3.4744,3.4769,3.477,3.4785,3.4803,3.4806,3.4787,3.4822,3.483,3.4874,3.4896,3.4855,3.4858,3.4988,3.4991,3.4993,3.5017,0,0,0,0,0,0,3.4656,3.4669,3.4691,3.4717,3.473,3.4797,3.477,3.4773,3.4791,3.4789,3.4815,3.4818,3.4822,3.4869,3.4877,3.4901,3.4861,3.4986,3.4989,3.4992,3.5014,3.502,3.5025,0,0,0,0,0,3.4652,3.4697,3.4693,3.4703,3.4758,3.4798,3.4805,3.481,3.4793,3.4814,3.4825,3.4817,3.4893,3.4873,3.4883,3.4908,3.4985,3.4989,3.4992,3.5012,3.5019,3.5025,0,0,0,0,0,0,3.4673,3.47,3.4696,3.4751,3.4772,3.4796,3.4823,3.4818,3.4844,3.484,3.4844,3.485,3.4894,3.4905,3.4883,3.4957,3.4936,3.4942,3.4948,3.4955,3.496,3.4955,3.4864,0,0,0,0,0,3.4684,3.4716,3.4738,3.4784,3.4795,3.4807,3.4825,3.4826,3.4848,3.4857,3.4871,3.4892,3.492,3.4938,3.4966,3.5016,3.5019,3.5038,3.5043,3.5047,3.5051,3.5074,3.5081,3.5005,3.5005,3.5005,0,0,3.4707,3.4726,3.4746,3.4788,3.4805,3.4836,3.4815,3.4849,3.4871,3.4862,3.4903,3.4914,3.4937,3.4983,3.5005,3.4994,3.5073,3.5052,3.5055,3.5057,3.5079,3.5086,3.5092,3.5008,3.5007,3.5007,0,0,3.4764,3.4784,3.4821,3.4838,3.4863,3.487,3.4879,3.4903,3.491,3.4952,3.4944,3.4969,3.5019,3.5034,3.5048,3.5106,3.5098,3.5115,3.5141,3.5164,3.517,3.5175,3.5192,3.5199,3.5119,3.5119,3.5119,0,3.4789,3.4837,3.4842,3.4875,3.4892,3.4885,3.4921,3.4937,3.497,3.498,3.4969,3.5027,3.5043,3.509,3.5104,3.5117,3.5124,3.5111,3.5169,3.5174,3.5179,3.5195,3.5202,3.5121,3.5121,3.512,3.512,0,3.4864,3.4897,3.4924,3.4955,3.4975,3.501,3.5017,3.5037,3.5035,3.5042,3.5082,3.51,3.5128,3.514,3.514,3.5186,3.5179,3.5168,3.5147,3.5188,3.5203,3.5209,3.5123,3.5122,3.5122,3.5122,0,0,3.4938,3.4967,3.4977,3.4989,3.5014,3.5039,3.5071,3.5099,3.5114,3.5136,3.5161,3.5201,3.519,3.5206,3.5207,3.5227,3.5267,3.5213,3.5214,3.522,3.5314,3.532,3.5327,3.5262,3.5263,3.5264,3.5311,0,3.4994,3.5053,3.5055,3.5108,3.5135,3.5127,3.5155,3.5172,3.5179,3.5202,3.5209,3.5236,3.5221,3.523,3.525,3.5258,3.5285,3.5255,3.5283,3.5284,3.5275,3.5336,3.5343,3.5386,3.5317,3.5318,3.5319,0,3.5068,3.5091,3.5145,3.5162,3.5174,3.52,3.5222,3.5246,3.5263,3.5267,3.5283,3.528,3.531,3.5288,3.5328,3.5308,3.5319,3.5324,3.5326,3.5327,3.5302,3.5335,3.5401,3.5406,3.5329,3.5328,3.5328,0,3.5111,3.5155,3.5192,3.5203,3.5226,3.5242,3.5252,3.5269,3.5284,3.5304,3.5312,3.5336,3.5348,3.5365,3.5367,3.5352,3.5406,3.5386,3.5407,3.5407,3.5418,3.5416,3.5483,3.5429,3.5429,3.5429,3.5429,0,3.5172,3.5205,3.5211,3.5234,3.5269,3.5271,3.5305,3.5314,3.5327,3.5349,3.5344,3.5365,3.5368,3.5388,3.539,3.5421,3.5427,3.5428,3.5428,3.5428,3.5427,3.5434,3.543,3.5431,3.5431,3.543,3.543,0,3.5226,3.5232,3.5271,3.5288,3.5292,3.5317,3.533,3.5351,3.5356,3.5384,3.539,3.5398,3.5422,3.5426,3.5454,3.5455,3.549,3.5489,3.5484,3.5483,3.5503,3.55,3.5574,3.5582,3.5526,3.5527,3.5527,0,3.5263,3.5288,3.5306,3.532,3.5331,3.5354,3.5369,3.537,3.5385,3.5405,3.5422,3.5445,3.5463,3.5501,3.5508,3.5528,3.5525,3.5549,3.5528,3.5525,3.5521,3.5519,3.552,3.5553,3.5553,3.5554,3.5554,0,3.5328,3.5328,3.535,3.5371,3.5388,3.5405,3.5421,3.5433,3.5436,3.5453,3.5476,3.549,3.5518,3.5539,3.5559,3.5567,3.556,3.5561,3.5566,3.5565,3.556,3.556,3.5492,3.5559,3.5559,3.5558,3.5558,3.5558,3.5372,3.5391,3.5406,3.5429,3.5441,3.5455,3.5473,3.548,3.55,3.5522,3.5521,3.5546,3.556,3.5585,3.5594,3.5612,3.5604,3.5613,3.5615,3.5616,3.5617,3.5559,3.5616,3.5616,3.5616,3.5616,3.5616,0,3.5433,3.5441,3.5462,3.5483,3.55,3.5493,3.5509,3.5523,3.5545,3.5558,3.5575,3.56,3.562,3.5628,3.5647,3.566,3.5657,3.5665,3.5663,3.5664,3.5624,3.5616,3.5666,3.5666,3.5666,3.5666,3.5666,3.5666,3.5466,3.5498,3.5499,3.5535,3.5543,3.5567,3.5576,3.5588,3.5598,3.5626,3.5643,3.5648,3.5658,3.5677,3.5694,3.5695,3.5701,3.571,3.571,3.5672,3.5667,3.5662,3.5654,3.5712,3.5712,3.5747,3.5747,3.5748]}]]